| time (UTC) | temp F | wind direction | speed knots | gust knots | rain 1hr in | rain 24hr in | rain mn in | humidity % | barometer mb |
| 20260906234535 | 81 | 52 | 0.0 | 0.0 | 0.00 | 0.18 | 0.00 | 49 | 1012.4 |
| 20260906234035 | 81 | 36 | 0.0 | 0.0 | 0.00 | 0.18 | 0.00 | 49 | 1012.4 |
| 20260906233535 | 82 | 34 | 0.0 | 0.0 | 0.00 | 0.18 | 0.00 | 48 | 1012.4 |
| 20260906233041 | 82 | 37 | 0.0 | 0.0 | 0.00 | 0.18 | 0.00 | 47 | 1012.4 |
| 20260906232536 | 82 | 69 | 0.0 | 0.0 | 0.00 | 0.18 | 0.00 | 47 | 1012.4 |
| 20260906232034 | 82 | 36 | 0.0 | 0.0 | 0.00 | 0.18 | 0.00 | 47 | 1012.3 |
| 20260906231533 | 83 | 41 | 0.0 | 0.0 | 0.00 | 0.18 | 0.00 | 47 | 1012.3 |
| 20260906231034 | 83 | 54 | 0.0 | 0.9 | 0.00 | 0.18 | 0.00 | 47 | 1012.4 |
| 20260906230537 | 83 | 50 | 0.0 | 0.9 | 0.00 | 0.18 | 0.00 | 46 | 1012.4 |
| 20260906230034 | 83 | 40 | 0.0 | 0.0 | 0.00 | 0.18 | 0.00 | 47 | 1012.4 |
| 20260906225534 | 83 | 51 | 0.0 | 0.9 | 0.00 | 0.18 | 0.00 | 46 | 1012.4 |
| 20260906225034 | 83 | 36 | 0.0 | 0.9 | 0.00 | 0.18 | 0.00 | 46 | 1012.4 |
| 20260906224541 | 83 | 61 | 0.0 | 0.9 | 0.00 | 0.18 | 0.00 | 45 | 1012.3 |
| 20260906224032 | 83 | 40 | 0.0 | 0.9 | 0.00 | 0.18 | 0.00 | 46 | 1012.3 |
| 20260906223532 | 84 | 67 | 0.0 | 0.9 | 0.00 | 0.18 | 0.00 | 46 | 1012.2 |
| 20260906223037 | 84 | 32 | 0.0 | 0.9 | 0.00 | 0.18 | 0.00 | 46 | 1012.3 |
| 20260906222531 | 84 | 55 | 0.0 | 0.9 | 0.00 | 0.18 | 0.00 | 46 | 1012.3 |
| 20260906222031 | 84 | 61 | 0.0 | 0.9 | 0.00 | 0.18 | 0.00 | 46 | 1012.4 |
| 20260906221537 | 84 | 71 | 0.0 | 0.9 | 0.00 | 0.18 | 0.00 | 46 | 1012.4 |
| 20260906221031 | 85 | 24 | 0.0 | 0.0 | 0.00 | 0.18 | 0.00 | 46 | 1012.4 |
| 20260906220530 | 84 | 40 | 0.0 | 0.0 | 0.00 | 0.18 | 0.00 | 47 | 1012.4 |
| 20260906220031 | 84 | 10 | 0.0 | 0.9 | 0.00 | 0.18 | 0.00 | 46 | 1012.5 |
| 20260906215531 | 84 | 15 | 0.0 | 0.9 | 0.00 | 0.18 | 0.00 | 48 | 1012.5 |
| 20260906215031 | 84 | 29 | 0.0 | 0.0 | 0.00 | 0.18 | 0.00 | 48 | 1012.4 |
| 20260906214531 | 84 | 23 | 0.0 | 0.9 | 0.00 | 0.18 | 0.00 | 46 | 1012.4 |
| 20260906214030 | 85 | 48 | 0.0 | 0.9 | 0.00 | 0.18 | 0.00 | 46 | 1012.4 |
| 20260906213530 | 85 | 57 | 0.0 | 0.9 | 0.00 | 0.18 | 0.00 | 46 | 1012.3 |
| 20260906213030 | 85 | 39 | 0.0 | 0.0 | 0.00 | 0.18 | 0.00 | 47 | 1012.3 |
| 20260906212529 | 85 | 36 | 0.0 | 0.0 | 0.00 | 0.18 | 0.00 | 47 | 1012.3 |
| 20260906212028 | 84 | 44 | 0.0 | 0.9 | 0.00 | 0.18 | 0.00 | 48 | 1012.3 |
| 20260906211528 | 84 | 59 | 0.0 | 0.9 | 0.00 | 0.18 | 0.00 | 48 | 1012.2 |
| 20260906211027 | 84 | 55 | 0.0 | 0.9 | 0.00 | 0.18 | 0.00 | 48 | 1012.3 |
| 20260906210528 | 84 | 44 | 0.0 | 0.9 | 0.00 | 0.18 | 0.00 | 49 | 1012.5 |
| 20260906210027 | 84 | 40 | 0.0 | 0.9 | 0.00 | 0.18 | 0.00 | 49 | 1012.6 |
| 20260906205526 | 84 | 39 | 0.0 | 0.0 | 0.00 | 0.18 | 0.00 | 49 | 1012.6 |
| 20260906205030 | 84 | 42 | 0.0 | 0.0 | 0.00 | 0.18 | 0.00 | 50 | 1012.6 |
| 20260906204545 | 84 | 40 | 0.0 | 0.0 | 0.00 | 0.18 | 0.00 | 50 | 1012.7 |
| 20260906204026 | 84 | 58 | 0.0 | 0.0 | 0.00 | 0.18 | 0.00 | 50 | 1012.7 |
| 20260906203526 | 84 | 68 | 0.0 | 0.9 | 0.00 | 0.18 | 0.00 | 51 | 1012.7 |
| 20260906203024 | 84 | 86 | 0.0 | 0.9 | 0.00 | 0.18 | 0.00 | 51 | 1012.7 |
| 20260906202525 | 84 | 44 | 0.0 | 0.0 | 0.00 | 0.18 | 0.00 | 50 | 1012.7 |
| 20260906202027 | 84 | 360 | 0.0 | 0.0 | 0.00 | 0.18 | 0.00 | 52 | 1012.6 |
| 20260906201523 | 84 | 16 | 0.0 | 0.0 | 0.00 | 0.18 | 0.00 | 52 | 1012.7 |
| 20260906201025 | 84 | 67 | 0.0 | 0.0 | 0.00 | 0.18 | 0.00 | 52 | 1012.8 |
| 20260906200523 | 84 | 55 | 0.0 | 0.9 | 0.00 | 0.18 | 0.00 | 53 | 1012.9 |
| 20260906200022 | 84 | 41 | 0.0 | 0.0 | 0.00 | 0.18 | 0.00 | 54 | 1013.0 |
| 20260906195522 | 83 | 39 | 0.0 | 0.0 | 0.00 | 0.18 | 0.00 | 54 | 1013.0 |
| 20260906195021 | 83 | 28 | 0.0 | 0.0 | 0.00 | 0.18 | 0.00 | 55 | 1013.0 |
| 20260906194521 | 83 | 17 | 0.0 | 0.0 | 0.00 | 0.18 | 0.00 | 54 | 1013.1 |
| 20260906194021 | 83 | 50 | 0.0 | 0.0 | 0.00 | 0.18 | 0.00 | 55 | 1013.2 |
| 20260906193519 | 82 | 29 | 0.0 | 0.0 | 0.00 | 0.18 | 0.00 | 59 | 1013.2 |
| 20260906193017 | 81 | 69 | 0.0 | 0.0 | 0.00 | 0.18 | 0.00 | 58 | 1013.3 |
| 20260906192517 | 81 | 67 | 0.0 | 0.9 | 0.00 | 0.18 | 0.00 | 58 | 1013.3 |
| 20260906192016 | 81 | 54 | 0.0 | 0.9 | 0.00 | 0.18 | 0.00 | 58 | 1013.4 |
| 20260906191516 | 81 | 44 | 0.0 | 0.0 | 0.00 | 0.18 | 0.00 | 60 | 1013.4 |
| 20260906191014 | 81 | 5 | 0.0 | 0.0 | 0.00 | 0.18 | 0.00 | 61 | 1013.4 |
| 20260906190513 | 80 | 22 | 0.0 | 0.0 | 0.00 | 0.18 | 0.00 | 62 | 1013.5 |
| 20260906190012 | 79 | 39 | 0.0 | 0.0 | 0.00 | 0.18 | 0.00 | 63 | 1013.4 |
| 20260906185511 | 79 | 49 | 0.0 | 0.0 | 0.00 | 0.18 | 0.00 | 63 | 1013.4 |
| 20260906185010 | 79 | 35 | 0.0 | 0.9 | 0.00 | 0.18 | 0.00 | 64 | 1013.5 |
| 20260906184510 | 79 | 25 | 0.0 | 0.9 | 0.00 | 0.18 | 0.00 | 63 | 1013.6 |
| 20260906184011 | 79 | 40 | 0.0 | 0.0 | 0.00 | 0.18 | 0.00 | 64 | 1013.6 |
| 20260906183508 | 78 | 25 | 0.0 | 0.0 | 0.00 | 0.18 | 0.00 | 64 | 1013.6 |
| 20260906183012 | 78 | 15 | 0.0 | 0.0 | 0.00 | 0.18 | 0.00 | 65 | 1013.6 |
| 20260906182507 | 78 | 38 | 0.0 | 0.0 | 0.00 | 0.18 | 0.00 | 65 | 1013.6 |
| 20260906182009 | 78 | 21 | 0.0 | 0.0 | 0.00 | 0.18 | 0.00 | 65 | 1013.5 |
| 20260906181507 | 78 | 51 | 0.0 | 0.0 | 0.00 | 0.18 | 0.00 | 65 | 1013.6 |
| 20260906181006 | 78 | 28 | 0.0 | 0.9 | 0.00 | 0.18 | 0.00 | 66 | 1013.6 |
| 20260906180508 | 78 | 31 | 0.0 | 0.9 | 0.00 | 0.18 | 0.00 | 66 | 1013.6 |
| 20260906180006 | 78 | 42 | 0.0 | 0.9 | 0.00 | 0.18 | 0.00 | 66 | 1013.5 |
| 20260906175505 | 78 | 46 | 0.0 | 0.9 | 0.00 | 0.18 | 0.00 | 66 | 1013.5 |
| 20260906175004 | 78 | 58 | 0.0 | 0.9 | 0.00 | 0.18 | 0.00 | 67 | 1013.5 |
| 20260906174504 | 78 | 32 | 0.0 | 0.0 | 0.00 | 0.18 | 0.00 | 67 | 1013.5 |
| 20260906174004 | 77 | 21 | 0.0 | 0.9 | 0.00 | 0.18 | 0.00 | 67 | 1013.5 |
| 20260906173504 | 77 | 36 | 0.0 | 0.9 | 0.00 | 0.18 | 0.00 | 67 | 1013.5 |
| 20260906173003 | 77 | 28 | 0.0 | 0.9 | 0.00 | 0.18 | 0.00 | 67 | 1013.5 |
| 20260906172502 | 77 | 28 | 0.0 | 0.9 | 0.00 | 0.18 | 0.00 | 68 | 1013.6 |
| 20260906172001 | 77 | 44 | 0.0 | 0.9 | 0.00 | 0.18 | 0.00 | 68 | 1013.7 |
| 20260906171605 | 77 | 31 | 0.0 | 0.9 | 0.00 | 0.18 | 0.00 | 68 | 1013.7 |
| 20260906171059 | 77 | 37 | 0.0 | 0.9 | 0.00 | 0.18 | 0.00 | 69 | 1013.7 |
| 20260906170559 | 77 | 54 | 0.0 | 0.9 | 0.00 | 0.18 | 0.00 | 69 | 1013.8 |
| 20260906170120 | 77 | 49 | 0.0 | 0.9 | 0.00 | 0.18 | 0.00 | 69 | 1013.9 |
| 20260906165559 | 76 | 46 | 0.0 | 0.9 | 0.00 | 0.18 | 0.00 | 69 | 1013.9 |
| 20260906165101 | 76 | 45 | 0.0 | 0.0 | 0.00 | 0.18 | 0.00 | 70 | 1014.0 |
| 20260906164600 | 76 | 57 | 0.0 | 0.0 | 0.00 | 0.18 | 0.00 | 70 | 1014.2 |
| 20260906164057 | 76 | 55 | 0.0 | 0.0 | 0.00 | 0.18 | 0.00 | 70 | 1014.2 |
| 20260906163556 | 76 | 46 | 0.0 | 0.9 | 0.00 | 0.18 | 0.00 | 71 | 1014.3 |
| 20260906163110 | 76 | 18 | 0.0 | 0.9 | 0.00 | 0.18 | 0.00 | 70 | 1014.2 |
| 20260906162556 | 76 | 31 | 0.0 | 0.0 | 0.00 | 0.18 | 0.00 | 70 | 1014.1 |
| 20260906162055 | 76 | 23 | 0.0 | 0.0 | 0.00 | 0.18 | 0.00 | 70 | 1014.0 |
| 20260906161555 | 76 | 17 | 0.0 | 0.0 | 0.00 | 0.18 | 0.00 | 70 | 1014.0 |
| 20260906161055 | 76 | 42 | 0.0 | 0.0 | 0.00 | 0.18 | 0.00 | 70 | 1014.0 |
| 20260906160555 | 76 | 19 | 0.0 | 0.9 | 0.00 | 0.18 | 0.00 | 70 | 1014.1 |
| 20260906160057 | 76 | 51 | 0.0 | 0.9 | 0.00 | 0.18 | 0.00 | 70 | 1014.2 |
| 20260906155554 | 76 | 30 | 0.0 | 0.9 | 0.00 | 0.18 | 0.00 | 70 | 1014.2 |
| 20260906155057 | 76 | 36 | 0.0 | 0.9 | 0.00 | 0.18 | 0.00 | 71 | 1014.1 |
| 20260906154554 | 76 | 34 | 0.0 | 0.0 | 0.00 | 0.18 | 0.00 | 71 | 1014.2 |
| 20260906154054 | 76 | 25 | 0.0 | 0.0 | 0.00 | 0.18 | 0.00 | 71 | 1014.2 |
| 20260906153556 | 75 | 25 | 0.0 | 0.0 | 0.00 | 0.18 | 0.00 | 71 | 1014.2 |
| 20260906153052 | 75 | 15 | 0.0 | 0.0 | 0.00 | 0.18 | 0.00 | 71 | 1014.1 |
| 20260906152551 | 75 | 42 | 0.0 | 0.9 | 0.00 | 0.18 | 0.00 | 71 | 1014.1 |
| 20260906152050 | 75 | 38 | 0.0 | 0.9 | 0.00 | 0.18 | 0.00 | 72 | 1014.0 |
| 20260906151549 | 75 | 24 | 0.0 | 0.0 | 0.00 | 0.18 | 0.00 | 72 | 1013.9 |
| 20260906151048 | 75 | 29 | 0.0 | 0.9 | 0.00 | 0.18 | 0.00 | 72 | 1013.9 |
| 20260906150547 | 75 | 10 | 0.0 | 0.9 | 0.00 | 0.18 | 0.00 | 72 | 1013.8 |
| 20260906150058 | 75 | 360 | 0.0 | 0.9 | 0.00 | 0.18 | 0.00 | 72 | 1013.8 |
| 20260906145548 | 74 | 40 | 0.0 | 0.9 | 0.00 | 0.18 | 0.00 | 73 | 1013.8 |
| 20260906145048 | 74 | 34 | 0.0 | 0.0 | 0.00 | 0.18 | 0.00 | 73 | 1013.7 |
| 20260906144548 | 74 | 26 | 0.0 | 0.0 | 0.00 | 0.18 | 0.00 | 74 | 1013.7 |
| 20260906144046 | 74 | 33 | 0.0 | 0.9 | 0.00 | 0.18 | 0.00 | 74 | 1013.7 |
| 20260906143545 | 74 | 46 | 0.0 | 0.9 | 0.00 | 0.18 | 0.00 | 74 | 1013.7 |
| 20260906143050 | 74 | 22 | 0.0 | 0.9 | 0.00 | 0.18 | 0.00 | 74 | 1013.6 |
| 20260906142543 | 74 | 32 | 0.0 | 0.9 | 0.00 | 0.18 | 0.00 | 75 | 1013.6 |
| 20260906142044 | 74 | 38 | 0.0 | 0.0 | 0.00 | 0.18 | 0.00 | 75 | 1013.7 |
| 20260906141548 | 73 | 35 | 0.0 | 0.0 | 0.00 | 0.18 | 0.00 | 75 | 1013.5 |
| 20260906141043 | 73 | 22 | 0.0 | 0.0 | 0.00 | 0.18 | 0.00 | 75 | 1013.7 |
| 20260906140543 | 73 | 26 | 0.0 | 0.0 | 0.00 | 0.18 | 0.00 | 75 | 1013.7 |
| 20260906140054 | 73 | 20 | 0.0 | 0.0 | 0.00 | 0.18 | 0.00 | 76 | 1013.6 |
| 20260906135544 | 73 | 31 | 0.0 | 0.0 | 0.00 | 0.18 | 0.00 | 76 | 1013.6 |
| 20260906135042 | 73 | 31 | 0.0 | 0.0 | 0.00 | 0.18 | 0.00 | 76 | 1013.5 |
| 20260906134543 | 73 | 49 | 0.0 | 0.0 | 0.00 | 0.18 | 0.00 | 76 | 1013.5 |
| 20260906134045 | 73 | 49 | 0.0 | 0.0 | 0.00 | 0.18 | 0.00 | 76 | 1013.5 |
| 20260906133541 | 73 | 45 | 0.0 | 0.0 | 0.00 | 0.18 | 0.00 | 76 | 1013.5 |
| 20260906133106 | 73 | 51 | 0.0 | 0.0 | 0.00 | 0.18 | 0.00 | 76 | 1013.5 |
| 20260906132541 | 73 | 26 | 0.0 | 0.0 | 0.00 | 0.18 | 0.00 | 76 | 1013.4 |
| 20260906132040 | 72 | 26 | 0.0 | 0.0 | 0.00 | 0.18 | 0.00 | 76 | 1013.5 |
| 20260906131540 | 72 | 26 | 0.0 | 0.0 | 0.00 | 0.18 | 0.00 | 76 | 1013.5 |
| 20260906131042 | 72 | 26 | 0.0 | 0.0 | 0.00 | 0.18 | 0.00 | 76 | 1013.5 |
| 20260906130539 | 72 | 26 | 0.0 | 0.0 | 0.00 | 0.18 | 0.00 | 76 | 1013.5 |
| 20260906130039 | 72 | 26 | 0.0 | 0.0 | 0.00 | 0.18 | 0.00 | 76 | 1013.4 |
| 20260906125538 | 72 | 26 | 0.0 | 0.0 | 0.00 | 0.18 | 0.00 | 76 | 1013.4 |
| 20260906125037 | 71 | 26 | 0.0 | 0.0 | 0.00 | 0.18 | 0.00 | 76 | 1013.3 |
| 20260906124536 | 71 | 40 | 0.0 | 0.0 | 0.00 | 0.18 | 0.00 | 76 | 1013.2 |
| 20260906124037 | 71 | 250 | 0.0 | 0.0 | 0.00 | 0.18 | 0.00 | 76 | 1013.1 |
| 20260906123536 | 71 | 250 | 0.0 | 0.0 | 0.00 | 0.18 | 0.00 | 76 | 1013.1 |
| 20260906123036 | 71 | 250 | 0.0 | 0.0 | 0.00 | 0.18 | 0.00 | 76 | 1013.1 |
| 20260906122534 | 70 | 250 | 0.0 | 0.0 | 0.00 | 0.18 | 0.00 | 76 | 1012.9 |
| 20260906122034 | 70 | 249 | 0.0 | 0.0 | 0.00 | 0.18 | 0.00 | 76 | 1012.9 |
| 20260906121536 | 70 | 327 | 0.0 | 0.0 | 0.00 | 0.18 | 0.00 | 76 | 1012.8 |
| 20260906121033 | 70 | 331 | 0.0 | 0.0 | 0.00 | 0.18 | 0.00 | 76 | 1012.8 |
| 20260906120532 | 70 | 331 | 0.0 | 0.0 | 0.00 | 0.18 | 0.00 | 76 | 1012.6 |
| 20260906120034 | 70 | 331 | 0.0 | 0.0 | 0.00 | 0.18 | 0.00 | 76 | 1012.6 |
| 20260906115531 | 70 | 331 | 0.0 | 0.0 | 0.00 | 0.18 | 0.00 | 76 | 1012.5 |
| 20260906115031 | 70 | 331 | 0.0 | 0.0 | 0.00 | 0.18 | 0.00 | 76 | 1012.4 |
| 20260906114543 | 69 | 331 | 0.0 | 0.0 | 0.00 | 0.18 | 0.00 | 76 | 1012.4 |
| 20260906114030 | 69 | 331 | 0.0 | 0.0 | 0.00 | 0.18 | 0.00 | 76 | 1012.4 |
| 20260906113530 | 69 | 336 | 0.0 | 0.0 | 0.00 | 0.18 | 0.00 | 76 | 1012.4 |
| 20260906113029 | 69 | 336 | 0.0 | 0.0 | 0.00 | 0.18 | 0.00 | 76 | 1012.2 |
| 20260906112528 | 69 | 336 | 0.0 | 0.0 | 0.00 | 0.18 | 0.00 | 76 | 1012.2 |
| 20260906112028 | 69 | 335 | 0.0 | 0.0 | 0.00 | 0.18 | 0.00 | 76 | 1012.2 |
| 20260906111528 | 69 | 336 | 0.0 | 0.0 | 0.00 | 0.18 | 0.00 | 76 | 1012.2 |
| 20260906111027 | 69 | 335 | 0.0 | 0.0 | 0.00 | 0.18 | 0.00 | 75 | 1012.0 |
| 20260906110527 | 69 | 335 | 0.0 | 0.0 | 0.00 | 0.18 | 0.00 | 76 | 1012.0 |
| 20260906110025 | 69 | 335 | 0.0 | 0.0 | 0.00 | 0.18 | 0.00 | 75 | 1012.0 |
| 20260906105525 | 69 | 335 | 0.0 | 0.0 | 0.00 | 0.18 | 0.00 | 76 | 1011.9 |
| 20260906105027 | 69 | 335 | 0.0 | 0.0 | 0.00 | 0.18 | 0.00 | 76 | 1011.9 |
| 20260906104525 | 69 | 335 | 0.0 | 0.0 | 0.00 | 0.18 | 0.00 | 76 | 1011.8 |
| 20260906104022 | 69 | 335 | 0.0 | 0.0 | 0.00 | 0.18 | 0.00 | 76 | 1011.6 |
| 20260906103521 | 69 | 335 | 0.0 | 0.0 | 0.00 | 0.18 | 0.00 | 76 | 1011.5 |
| 20260906103021 | 70 | 335 | 0.0 | 0.0 | 0.00 | 0.18 | 0.00 | 76 | 1011.5 |
| 20260906102526 | 70 | 336 | 0.0 | 0.0 | 0.00 | 0.18 | 0.00 | 76 | 1011.4 |
| 20260906102020 | 70 | 336 | 0.0 | 0.0 | 0.00 | 0.18 | 0.00 | 76 | 1011.4 |
| 20260906101523 | 70 | 336 | 0.0 | 0.0 | 0.00 | 0.18 | 0.00 | 75 | 1011.4 |
| 20260906101019 | 70 | 336 | 0.0 | 0.0 | 0.00 | 0.18 | 0.00 | 75 | 1011.4 |
| 20260906100521 | 70 | 336 | 0.0 | 0.0 | 0.00 | 0.18 | 0.00 | 75 | 1011.4 |
| 20260906100024 | 70 | 336 | 0.0 | 0.0 | 0.00 | 0.18 | 0.00 | 75 | 1011.4 |
| 20260906095525 | 70 | 335 | 0.0 | 0.0 | 0.00 | 0.18 | 0.00 | 75 | 1011.4 |
| 20260906095018 | 70 | 335 | 0.0 | 0.0 | 0.00 | 0.18 | 0.00 | 75 | 1011.3 |
| 20260906094518 | 70 | 336 | 0.0 | 0.0 | 0.00 | 0.18 | 0.00 | 75 | 1011.3 |
| 20260906094021 | 70 | 335 | 0.0 | 0.0 | 0.00 | 0.18 | 0.00 | 75 | 1011.2 |
| 20260906093518 | 70 | 335 | 0.0 | 0.0 | 0.00 | 0.18 | 0.00 | 75 | 1011.3 |
| 20260906093020 | 70 | 335 | 0.0 | 0.9 | 0.00 | 0.18 | 0.00 | 75 | 1011.3 |
| 20260906092516 | 69 | 335 | 0.0 | 0.9 | 0.00 | 0.18 | 0.00 | 75 | 1011.2 |
| 20260906092019 | 70 | 335 | 0.0 | 0.0 | 0.00 | 0.18 | 0.00 | 75 | 1011.2 |
| 20260906091523 | 70 | 336 | 0.0 | 0.0 | 0.00 | 0.18 | 0.00 | 75 | 1011.1 |
| 20260906091015 | 70 | 336 | 0.0 | 0.0 | 0.00 | 0.18 | 0.00 | 75 | 1011.1 |
| 20260906090517 | 70 | 336 | 0.0 | 0.0 | 0.00 | 0.18 | 0.00 | 75 | 1011.1 |
| 20260906090016 | 70 | 336 | 0.0 | 0.0 | 0.00 | 0.18 | 0.00 | 75 | 1011.1 |
| 20260906085514 | 70 | 336 | 0.0 | 0.0 | 0.00 | 0.18 | 0.00 | 75 | 1011.1 |
| 20260906085013 | 70 | 336 | 0.0 | 0.0 | 0.00 | 0.18 | 0.00 | 75 | 1011.1 |
| 20260906084513 | 71 | 336 | 0.0 | 0.0 | 0.00 | 0.18 | 0.00 | 75 | 1011.0 |
| 20260906084012 | 71 | 336 | 0.0 | 0.0 | 0.00 | 0.18 | 0.00 | 75 | 1011.0 |
| 20260906083513 | 71 | 336 | 0.0 | 0.0 | 0.00 | 0.18 | 0.00 | 75 | 1010.9 |
| 20260906083012 | 71 | 336 | 0.0 | 0.0 | 0.00 | 0.18 | 0.00 | 74 | 1010.9 |
| 20260906082511 | 71 | 336 | 0.0 | 0.0 | 0.00 | 0.18 | 0.00 | 74 | 1011.0 |
| 20260906082011 | 71 | 336 | 0.0 | 0.0 | 0.00 | 0.18 | 0.00 | 74 | 1011.0 |
| 20260906081517 | 71 | 336 | 0.0 | 0.0 | 0.00 | 0.18 | 0.00 | 74 | 1011.0 |
| 20260906081011 | 71 | 336 | 0.0 | 0.0 | 0.00 | 0.18 | 0.00 | 74 | 1010.9 |
| 20260906080511 | 71 | 336 | 0.0 | 0.0 | 0.00 | 0.18 | 0.00 | 74 | 1010.9 |
| 20260906080013 | 71 | 336 | 0.0 | 0.0 | 0.00 | 0.18 | 0.00 | 74 | 1011.0 |
| 20260906075510 | 71 | 336 | 0.0 | 0.0 | 0.00 | 0.18 | 0.00 | 74 | 1011.0 |
| 20260906075013 | 71 | 336 | 0.0 | 0.0 | 0.00 | 0.18 | 0.00 | 74 | 1011.0 |
| 20260906074509 | 71 | 336 | 0.0 | 0.0 | 0.00 | 0.18 | 0.00 | 74 | 1010.9 |
| 20260906074008 | 71 | 336 | 0.0 | 0.0 | 0.00 | 0.18 | 0.00 | 74 | 1010.9 |
| 20260906073508 | 71 | 336 | 0.0 | 0.0 | 0.00 | 0.18 | 0.00 | 74 | 1010.9 |
| 20260906073008 | 72 | 336 | 0.0 | 0.0 | 0.00 | 0.18 | 0.00 | 74 | 1010.9 |
| 20260906072507 | 72 | 336 | 0.0 | 0.0 | 0.00 | 0.18 | 0.00 | 74 | 1010.8 |
| 20260906072008 | 72 | 336 | 0.0 | 0.0 | 0.00 | 0.18 | 0.00 | 73 | 1010.9 |
| 20260906071506 | 72 | 336 | 0.0 | 0.0 | 0.00 | 0.18 | 0.00 | 73 | 1010.8 |
| 20260906071006 | 72 | 336 | 0.0 | 0.0 | 0.00 | 0.18 | 0.00 | 74 | 1010.8 |
| 20260906070505 | 72 | 336 | 0.0 | 0.0 | 0.00 | 0.18 | 0.00 | 74 | 1010.8 |
| 20260906070005 | 72 | 336 | 0.0 | 0.0 | 0.00 | 0.18 | 0.00 | 74 | 1010.9 |
| 20260906065505 | 72 | 336 | 0.0 | 0.0 | 0.00 | 0.18 | 0.00 | 73 | 1011.0 |
| 20260906065005 | 72 | 336 | 0.0 | 0.0 | 0.00 | 0.18 | 0.00 | 73 | 1011.0 |
| 20260906064504 | 72 | 336 | 0.0 | 0.0 | 0.00 | 0.18 | 0.00 | 73 | 1011.1 |
| 20260906064004 | 72 | 336 | 0.0 | 0.0 | 0.00 | 0.18 | 0.00 | 73 | 1011.2 |
| 20260906063507 | 73 | 336 | 0.0 | 0.0 | 0.00 | 0.18 | 0.00 | 73 | 1011.2 |
| 20260906063003 | 73 | 294 | 0.0 | 0.0 | 0.00 | 0.18 | 0.00 | 73 | 1011.2 |
| 20260906062502 | 73 | 294 | 0.0 | 0.0 | 0.00 | 0.18 | 0.00 | 72 | 1011.2 |
| 20260906062002 | 73 | 294 | 0.0 | 0.0 | 0.00 | 0.18 | 0.00 | 72 | 1011.1 |
| 20260906061503 | 73 | 271 | 0.0 | 0.0 | 0.00 | 0.18 | 0.00 | 72 | 1011.1 |
| 20260906061002 | 73 | 213 | 0.0 | 0.0 | 0.00 | 0.18 | 0.00 | 72 | 1010.9 |
| 20260906060502 | 73 | 213 | 0.0 | 0.0 | 0.00 | 0.18 | 0.00 | 72 | 1010.9 |
| 20260906060002 | 74 | 213 | 0.0 | 0.0 | 0.00 | 0.18 | 0.00 | 71 | 1010.9 |
| 20260906055503 | 74 | 213 | 0.0 | 0.0 | 0.00 | 0.18 | 0.00 | 71 | 1010.9 |
| 20260906055002 | 74 | 213 | 0.0 | 0.0 | 0.00 | 0.18 | 0.00 | 72 | 1010.8 |
| 20260906054501 | 74 | 213 | 0.0 | 0.0 | 0.00 | 0.18 | 0.00 | 72 | 1010.9 |
| 20260906054100 | 74 | 213 | 0.0 | 0.0 | 0.00 | 0.18 | 0.00 | 72 | 1010.9 |
| 20260906053559 | 74 | 211 | 0.0 | 0.0 | 0.00 | 0.18 | 0.00 | 72 | 1011.1 |
| 20260906053101 | 74 | 218 | 0.0 | 0.0 | 0.00 | 0.18 | 0.00 | 72 | 1011.1 |
| 20260906052558 | 74 | 218 | 0.0 | 0.0 | 0.00 | 0.18 | 0.00 | 72 | 1011.1 |
| 20260906052058 | 74 | 223 | 0.0 | 0.0 | 0.00 | 0.18 | 0.00 | 72 | 1011.2 |
| 20260906051611 | 74 | 223 | 0.0 | 0.0 | 0.00 | 0.18 | 0.00 | 72 | 1011.2 |
| 20260906051057 | 73 | 223 | 0.0 | 0.0 | 0.00 | 0.18 | 0.00 | 72 | 1011.2 |
| 20260906050559 | 73 | 223 | 0.0 | 0.0 | 0.00 | 0.18 | 0.00 | 72 | 1011.1 |
| 20260906050057 | 73 | 223 | 0.0 | 0.0 | 0.00 | 0.18 | 0.00 | 73 | 1011.1 |
| 20260906045557 | 73 | 217 | 0.0 | 0.0 | 0.00 | 0.18 | 0.00 | 73 | 1011.1 |
| 20260906045100 | 73 | 215 | 0.0 | 0.0 | 0.00 | 0.18 | 0.00 | 73 | 1011.2 |
| 20260906044606 | 73 | 215 | 0.0 | 0.0 | 0.00 | 0.18 | 0.00 | 73 | 1011.2 |
| 20260906044056 | 73 | 213 | 0.0 | 0.0 | 0.00 | 0.18 | 0.00 | 73 | 1011.2 |
| 20260906043556 | 73 | 226 | 0.0 | 0.0 | 0.00 | 0.18 | 0.00 | 74 | 1011.2 |
| 20260906043054 | 73 | 227 | 0.0 | 0.0 | 0.00 | 0.18 | 0.00 | 75 | 1011.2 |
| 20260906042553 | 73 | 203 | 0.0 | 0.0 | 0.00 | 0.18 | 0.00 | 75 | 1011.0 |
| 20260906042053 | 73 | 213 | 0.0 | 0.0 | 0.00 | 0.18 | 0.00 | 75 | 1011.0 |
| 20260906041553 | 72 | 198 | 0.0 | 0.0 | 0.00 | 0.18 | 0.00 | 75 | 1011.0 |
| 20260906041052 | 73 | 191 | 0.0 | 0.0 | 0.00 | 0.18 | 0.00 | 75 | 1011.0 |
| 20260906040551 | 73 | 189 | 0.0 | 0.0 | 0.00 | 0.18 | 0.00 | 75 | 1011.1 |
| 20260906040126 | 73 | 189 | 0.0 | 0.0 | 0.00 | 0.18 | 0.00 | 75 | 1011.1 |
| 20260906035550 | 73 | 189 | 0.0 | 0.0 | 0.00 | 0.18 | 0.18 | 75 | 1011.1 |
| 20260906035050 | 73 | 189 | 0.0 | 0.0 | 0.00 | 0.18 | 0.18 | 75 | 1011.1 |
| 20260906034602 | 73 | 189 | 0.0 | 0.0 | 0.00 | 0.18 | 0.18 | 75 | 1011.1 |
| 20260906034049 | 73 | 189 | 0.0 | 0.0 | 0.00 | 0.18 | 0.18 | 75 | 1011.0 |
| 20260906033549 | 73 | 190 | 0.0 | 0.0 | 0.00 | 0.18 | 0.18 | 75 | 1010.9 |
| 20260906033103 | 73 | 190 | 0.0 | 0.0 | 0.00 | 0.18 | 0.18 | 75 | 1010.9 |
| 20260906032549 | 73 | 194 | 0.0 | 0.0 | 0.00 | 0.18 | 0.18 | 75 | 1011.0 |
| 20260906032049 | 73 | 201 | 0.0 | 0.0 | 0.00 | 0.18 | 0.18 | 75 | 1011.0 |
| 20260906031549 | 73 | 215 | 0.0 | 0.0 | 0.00 | 0.18 | 0.18 | 76 | 1010.9 |
| 20260906031049 | 73 | 211 | 0.0 | 0.0 | 0.00 | 0.18 | 0.18 | 76 | 1010.9 |
| 20260906030549 | 73 | 192 | 0.0 | 0.0 | 0.00 | 0.18 | 0.18 | 76 | 1011.0 |
| 20260906030049 | 73 | 199 | 0.0 | 0.0 | 0.00 | 0.18 | 0.18 | 76 | 1011.0 |
| 20260906025548 | 73 | 194 | 0.0 | 0.0 | 0.00 | 0.18 | 0.18 | 76 | 1011.0 |
| 20260906025048 | 73 | 194 | 0.0 | 0.0 | 0.00 | 0.18 | 0.18 | 76 | 1011.1 |
| 20260906024600 | 73 | 183 | 0.0 | 0.0 | 0.00 | 0.18 | 0.18 | 76 | 1011.0 |
| 20260906024048 | 73 | 183 | 0.0 | 0.0 | 0.00 | 0.18 | 0.18 | 76 | 1010.9 |
| 20260906023547 | 73 | 183 | 0.0 | 0.0 | 0.00 | 0.18 | 0.18 | 76 | 1010.8 |
| 20260906023057 | 73 | 184 | 0.0 | 0.0 | 0.00 | 0.18 | 0.18 | 76 | 1010.9 |
| 20260906022548 | 73 | 184 | 0.0 | 0.0 | 0.01 | 0.18 | 0.18 | 76 | 1010.8 |
| 20260906022047 | 74 | 207 | 0.0 | 0.0 | 0.01 | 0.18 | 0.18 | 76 | 1010.9 |
| 20260906021547 | 73 | 207 | 0.0 | 0.0 | 0.12 | 0.18 | 0.18 | 76 | 1010.8 |
| 20260906021046 | 73 | 209 | 0.0 | 0.0 | 0.18 | 0.18 | 0.18 | 76 | 1010.9 |
| 20260906020546 | 73 | 209 | 0.0 | 0.0 | 0.18 | 0.18 | 0.18 | 76 | 1011.1 |
| 20260906020047 | 73 | 217 | 0.0 | 0.0 | 0.18 | 0.18 | 0.18 | 76 | 1011.1 |
| 20260906015546 | 73 | 219 | 0.0 | 0.0 | 0.18 | 0.18 | 0.18 | 76 | 1011.0 |
| 20260906015046 | 73 | 227 | 0.0 | 0.0 | 0.18 | 0.18 | 0.18 | 75 | 1010.9 |
| 20260906014546 | 73 | 229 | 0.0 | 0.0 | 0.18 | 0.18 | 0.18 | 75 | 1010.7 |
| 20260906014046 | 73 | 232 | 0.0 | 0.0 | 0.18 | 0.18 | 0.18 | 75 | 1010.5 |
| 20260906013545 | 73 | 213 | 0.0 | 0.9 | 0.18 | 0.18 | 0.18 | 75 | 1010.1 |
| 20260906013044 | 72 | 132 | 0.0 | 0.9 | 0.18 | 0.18 | 0.18 | 73 | 1009.9 |
| 20260906012544 | 73 | 150 | 0.0 | 0.9 | 0.17 | 0.17 | 0.17 | 72 | 1010.0 |
| 20260906012042 | 73 | 141 | 0.0 | 0.9 | 0.17 | 0.17 | 0.17 | 65 | 1009.8 |
| 20260906011541 | 80 | 288 | 0.0 | 0.9 | 0.06 | 0.06 | 0.06 | 58 | 1010.6 |
| 20260906011041 | 83 | 335 | 0.0 | 0.0 | 0.00 | 0.00 | 0.00 | 58 | 1009.7 |
| 20260906010541 | 84 | 24 | 0.0 | 0.0 | 0.00 | 0.00 | 0.00 | 57 | 1009.4 |
| 20260906010041 | 84 | 24 | 0.0 | 0.0 | 0.00 | 0.00 | 0.00 | 58 | 1009.6 |
| 20260906005543 | 85 | 24 | 0.0 | 0.0 | 0.00 | 0.00 | 0.00 | 56 | 1009.4 |
| 20260906005040 | 85 | 24 | 0.0 | 0.0 | 0.00 | 0.00 | 0.00 | 55 | 1009.4 |
| 20260906004540 | 85 | 24 | 0.0 | 0.0 | 0.00 | 0.00 | 0.00 | 55 | 1009.5 |
| 20260906004039 | 86 | 24 | 0.0 | 0.0 | 0.00 | 0.00 | 0.00 | 55 | 1009.4 |
| 20260906003540 | 86 | 24 | 0.0 | 0.0 | 0.00 | 0.00 | 0.00 | 54 | 1009.4 |
| 20260906003039 | 86 | 24 | 0.0 | 0.0 | 0.00 | 0.00 | 0.00 | 54 | 1009.4 |
| 20260906002541 | 86 | 24 | 0.0 | 0.0 | 0.00 | 0.00 | 0.00 | 54 | 1009.5 |
| 20260906002042 | 86 | 24 | 0.0 | 0.0 | 0.00 | 0.00 | 0.00 | 54 | 1009.5 |
| 20260906001539 | 87 | 24 | 0.0 | 0.0 | 0.00 | 0.00 | 0.00 | 53 | 1009.6 |
| 20260906001038 | 88 | 24 | 0.0 | 0.0 | 0.00 | 0.00 | 0.00 | 51 | 1009.7 |
| 20260906000538 | 89 | 24 | 0.0 | 0.0 | 0.00 | 0.00 | 0.00 | 50 | 1009.8 |
| 20260906000038 | 89 | 24 | 0.0 | 0.0 | 0.00 | 0.00 | 0.00 | 50 | 1010.0 |
| 20260905235540 | 89 | 24 | 0.0 | 0.0 | 0.00 | 0.00 | 0.00 | 49 | 1010.2 |
| 20260905235038 | 89 | 24 | 0.0 | 0.0 | 0.00 | 0.00 | 0.00 | 49 | 1010.2 |